Time Latitude Longitude Accuracy (66% radius in meters) Altitude (meters) Speed (km/hour) Bearing (degrees) Battery (%) GPS flag
07:08:29 57.204715 60.121401 12 331.17892944997 2.2262575626373 303.95404052734 87 1 delete
07:08:17 57.204694 60.121579 12 331.75917986319 0.95808416604996 267.85717773438 87 1 delete
07:08:10 57.204672 60.121567 16 331.89334991072 0.43775689601898 187.11622619629 87 1 delete
07:08:07 57.204684 60.121422 24 331.90606934748 0.49577066302299 187.75387573242 87 1 delete
07:08:01 57.204689 60.121373 24 331.89362133684 0.52650570869446 139.86979675293 87 1 delete
07:07:50 57.204675 60.121515 24 331.78756069055 0.38664039969444 134.66386413574 87 1 delete
07:07:49 57.204669 60.121555 24 331.784934991 0.034718357026577 278.66513061523 87 1 delete
07:07:44 57.204639 60.121916 24 331.6646603009 0.034718357026577 277.37808227539 87 1 delete
07:07:32 57.204632 60.122048 12 331.52247497212 0.0064777680672705 115.86458587646 87 1 delete
07:07:28 57.204637 60.122064 12 331.52032079305 0.49747237563133 115.86458587646 87 1 delete
07:07:25 57.204632 60.122052 12 331.51962447785 0.46665114164352 95.435050964355 87 1 delete
07:07:14 57.204626 60.122050 12 331.51888927482 0.53377985954285 103.13639831543 87 1 delete
08:07:05 57.204622 60.121898 24 329.37733144788 0.26538625359535 6.9570446014404 87 0 delete
08:06:55 57.204622 60.121898 24 329.37733144788 0.26538625359535 6.9570446014404 87 0 delete
07:06:43 57.204548 60.121852 48 331.32515852236 0 0 87 1 delete
07:06:27 57.204567 60.121830 16 330.63913639393 0.25104144215584 99.874252319336 87 1 delete
07:06:16 57.204585 60.121822 12 329.83931475138 0.34844148159027 99.874252319336 87 1 delete
07:06:11 57.204591 60.121839 12 329.73583458735 0.52317976951599 132.37715148926 87 1 delete
07:06:01 57.204613 60.121888 16 329.49068415541 1.0558758974075 133.0869140625 87 1 delete
07:05:51 57.204653 60.121804 16 329.28950368516 0.50267988443375 38.690464019775 87 1 delete
07:05:40 57.204645 60.121902 12 329.07343684693 0.021045293658972 6.9570446014404 87 1 delete
07:05:30 57.204623 60.121893 16 329.3749617624 0.0018827684689313 6.9570446014404 87 1 delete
07:05:28 57.204622 60.121898 24 329.37733144788 0.26538625359535 6.9570446014404 87 1 delete
08:05:21 57.204524 60.121816 24 329.36232738667 0.42174944281578 0.094065368175507 87 0 delete
08:05:10 57.204524 60.121816 24 329.36232738667 0.42174944281578 0.094065368175507 87 0 delete
08:05:00 57.204524 60.121816 24 329.36232738667 0.42174944281578 0.094065368175507 87 0 delete
08:04:49 57.204524 60.121816 24 329.36232738667 0.42174944281578 0.094065368175507 87 0 delete
08:04:39 57.204524 60.121816 24 329.36232738667 0.42174944281578 0.094065368175507 87 0 delete
08:04:29 57.204524 60.121816 24 329.36232738667 0.42174944281578 0.094065368175507 87 0 delete
08:04:18 57.204524 60.121816 24 329.36232738667 0.42174944281578 0.094065368175507 87 0 delete
08:04:06 57.204524 60.121816 24 329.36232738667 0.42174944281578 0.094065368175507 87 0 delete
08:03:56 57.204524 60.121816 24 329.36232738667 0.42174944281578 0.094065368175507 87 0 delete
08:03:45 57.204524 60.121816 24 329.36232738667 0.42174944281578 0.094065368175507 87 0 delete
08:03:35 57.204524 60.121816 24 329.36232738667 0.42174944281578 0.094065368175507 87 0 delete
08:03:25 57.204524 60.121816 24 329.36232738667 0.42174944281578 0.094065368175507 87 0 delete
08:03:14 57.204524 60.121816 24 329.36232738667 0.42174944281578 0.094065368175507 87 0 delete
08:03:03 57.204524 60.121816 24 329.36232738667 0.42174944281578 0.094065368175507 87 0 delete
08:02:52 57.204524 60.121816 24 329.36232738667 0.42174944281578 0.094065368175507 87 0 delete
08:02:41 57.204524 60.121816 24 329.36232738667 0.42174944281578 0.094065368175507 87 0 delete
08:02:30 57.204524 60.121816 24 329.36232738667 0.42174944281578 0.094065368175507 87 0 delete
08:02:20 57.204524 60.121816 24 329.36232738667 0.42174944281578 0.094065368175507 87 0 delete
08:02:08 57.204524 60.121816 24 329.36232738667 0.42174944281578 0.094065368175507 87 0 delete
08:01:57 57.204524 60.121816 24 329.36232738667 0.42174944281578 0.094065368175507 87 0 delete
08:01:45 57.204524 60.121816 24 329.36232738667 0.42174944281578 0.094065368175507 87 0 delete
08:01:35 57.204524 60.121816 24 329.36232738667 0.42174944281578 0.094065368175507 87 0 delete
08:01:24 57.204524 60.121816 24 329.36232738667 0.42174944281578 0.094065368175507 87 0 delete
08:01:13 57.204524 60.121816 24 329.36232738667 0.42174944281578 0.094065368175507 87 0 delete
08:01:02 57.204524 60.121816 24 329.36232738667 0.42174944281578 0.094065368175507 87 0 delete
08:00:51 57.204524 60.121816 24 329.36232738667 0.42174944281578 0.094065368175507 87 0 delete
08:00:40 57.204524 60.121816 24 329.36232738667 0.42174944281578 0.094065368175507 87 0 delete